GW6637 Weather Reports


time (UTC)temp
C
wind
direction
speed
KPH
gust
KPH
rain 1hr
cm
rain 24hr
cm
rain mn
cm
humidity
%
barometer
mb
20260504060126 10 262 3.2 3.2 0.00 0.00 0.00 49 1017.4
20260504050554 9 173 0.0 0.0 0.00 0.00 0.00 57 1017.4
20260504045548 8 90 0.0 1.6 0.00 0.00 0.00 65 1017.6
20260504045043 7 90 0.0 0.0 0.00 0.00 0.00 70 1017.2
20260504044540 7 90 0.0 0.0 0.00 0.00 0.00 69 1017.1
20260504044037 7 90 0.0 0.0 0.00 0.00 0.00 69 1017.1
20260504043534 7 90 0.0 0.0 0.00 0.00 0.00 69 1017.2
20260504043032 7 90 0.0 0.0 0.00 0.00 0.00 68 1017.0
20260504042529 7 90 0.0 0.0 0.00 0.00 0.00 68 1016.7
20260504042026 7 90 0.0 0.0 0.00 0.00 0.00 68 1016.6
20260504041521 7 90 0.0 0.0 0.00 0.00 0.00 67 1017.0
20260504041017 7 90 0.0 0.0 0.00 0.00 0.00 68 1016.9
20260504040515 7 90 0.0 0.0 0.00 0.00 0.00 69 1017.0
20260504040012 7 90 0.0 0.0 0.00 0.00 0.00 69 1017.2
20260504035509 7 90 0.0 0.0 0.00 0.00 0.00 68 1017.1
20260504035005 7 90 0.0 0.0 0.00 0.00 0.00 71 1017.2
20260504034503 6 90 0.0 0.0 0.00 0.00 0.00 69 1017.2
20260504034000 6 90 0.0 0.0 0.00 0.00 0.00 68 1017.2
20260504033457 6 90 0.0 0.0 0.00 0.00 0.00 68 1017.1
20260504032955 6 90 0.0 0.0 0.00 0.00 0.00 67 1017.1
20260504032451 6 90 0.0 0.0 0.00 0.00 0.00 67 1017.0
20260504031948 7 90 0.0 0.0 0.00 0.00 0.00 67 1017.0
20260504031445 7 90 0.0 0.0 0.00 0.00 0.00 67 1017.2
20260504030941 7 90 0.0 0.0 0.00 0.00 0.00 65 1017.0
20260504030439 7 90 0.0 0.0 0.00 0.00 0.00 65 1017.0
20260504025934 7 90 0.0 0.0 0.00 0.00 0.00 66 1016.7
20260504025431 7 90 0.0 0.0 0.00 0.00 0.00 65 1017.0
20260504024929 7 90 0.0 0.0 0.00 0.00 0.00 65 1017.1
20260504024426 7 90 0.0 0.0 0.00 0.00 0.00 64 1017.2
20260504023922 7 90 0.0 0.0 0.00 0.00 0.00 62 1017.0
20260504023419 7 90 0.0 0.0 0.00 0.00 0.00 61 1017.1
20260504022915 7 90 0.0 0.0 0.00 0.00 0.00 62 1017.2
20260504022411 7 90 0.0 0.0 0.00 0.00 0.00 64 1017.1
20260504021908 7 90 0.0 0.0 0.00 0.00 0.00 64 1017.1
20260504021405 7 90 0.0 0.0 0.00 0.00 0.00 64 1016.9
20260504020903 8 90 0.0 0.0 0.00 0.00 0.00 64 1016.9
20260504020359 8 90 0.0 0.0 0.00 0.00 0.00 64 1016.9
20260504015855 8 90 0.0 0.0 0.00 0.00 0.00 63 1017.0
20260504015351 8 90 0.0 0.0 0.00 0.00 0.00 62 1016.6
20260504014847 8 90 0.0 0.0 0.00 0.00 0.00 62 1016.7
20260504014343 8 90 0.0 0.0 0.00 0.00 0.00 61 1016.7
20260504013841 9 90 0.0 0.0 0.00 0.00 0.00 60 1016.6
20260504013339 9 90 0.0 0.0 0.00 0.00 0.00 59 1016.3
20260504012835 9 90 0.0 0.0 0.00 0.00 0.00 57 1016.3
20260504012333 10 90 0.0 0.0 0.00 0.00 0.00 55 1016.1
20260504011831 10 90 0.0 0.0 0.00 0.00 0.00 56 1016.4
20260504011327 10 90 0.0 0.0 0.00 0.00 0.00 53 1016.1
20260504010823 10 90 0.0 0.0 0.00 0.00 0.00 55 1016.3
20260504010319 10 90 0.0 0.0 0.00 0.00 0.00 53 1016.2
20260504005815 11 90 0.0 0.0 0.00 0.00 0.00 50 1016.1
20260504005312 11 90 0.0 0.0 0.00 0.00 0.00 50 1015.9
20260504004810 11 90 0.0 0.0 0.00 0.00 0.00 49 1016.0
20260504004308 11 90 0.0 0.0 0.00 0.00 0.00 49 1016.0
20260504003803 11 90 0.0 0.0 0.00 0.00 0.00 47 1015.7
20260504003301 12 90 0.0 0.0 0.00 0.00 0.00 45 1015.8
20260504002757 12 90 0.0 0.0 0.00 0.00 0.00 45 1015.8
20260504002254 13 90 0.0 0.0 0.00 0.00 0.00 43 1015.9
20260504001752 13 90 0.0 0.0 0.00 0.00 0.00 39 1015.7
20260504001249 14 90 0.0 0.0 0.00 0.00 0.00 39 1015.8
20260504000746 15 90 0.0 0.0 0.00 0.00 0.00 37 1015.8
20260504000242 15 90 0.0 0.0 0.00 0.00 0.00 37 1015.8
20260503235741 16 89 0.0 0.0 0.00 0.00 0.00 30 1015.8
20260503235237 16 89 0.0 0.0 0.00 0.00 0.00 29 1015.7
20260503234735 16 90 0.0 0.0 0.00 0.00 0.00 27 1015.7
20260503234233 16 91 0.0 0.0 0.00 0.00 0.00 27 1015.5
20260503233730 16 91 0.0 0.0 0.00 0.00 0.00 24 1015.6
20260503233225 17 146 0.0 0.0 0.00 0.00 0.00 25 1015.6
20260503232723 17 235 1.6 3.2 0.00 0.00 0.00 25 1015.7
20260503232220 17 75 1.6 1.6 0.00 0.00 0.00 24 1015.5
20260503231718 17 215 3.2 3.2 0.00 0.00 0.00 22 1015.6
20260503231214 17 285 3.2 4.8 0.00 0.00 0.00 22 1015.7
20260503230711 17 286 4.8 4.8 0.00 0.00 0.00 22 1015.7
20260503230208 17 165 3.2 3.2 0.00 0.00 0.00 22 1015.4
20260503225705 17 265 1.6 1.6 0.00 0.00 0.00 21 1015.3
20260503225205 18 210 1.6 3.2 0.00 0.00 0.00 22 1015.3
20260503224703 18 57 3.2 3.2 0.00 0.00 0.00 21 1015.5
20260503224200 18 289 4.8 6.4 0.00 0.00 0.00 20 1015.5
20260503223658 18 19 8.0 11.3 0.00 0.00 0.00 20 1015.6
20260503223155 18 149 3.2 4.8 0.00 0.00 0.00 21 1015.5
20260503222652 18 317 4.8 4.8 0.00 0.00 0.00 21 1015.5
20260503222149 18 271 9.7 12.9 0.00 0.00 0.00 20 1015.7
20260503221648 19 353 6.4 11.3 0.00 0.00 0.00 20 1015.6
20260503221145 18 282 3.2 3.2 0.00 0.00 0.00 20 1015.6
20260503220641 18 299 4.8 12.9 0.00 0.00 0.00 22 1015.6
20260503220138 19 226 6.4 9.7 0.00 0.00 0.00 21 1015.8
20260503215635 19 163 4.8 6.4 0.00 0.00 0.00 19 1015.7
20260503215132 18 262 3.2 4.8 0.00 0.00 0.00 21 1015.8
20260503214630 19 253 9.7 12.9 0.00 0.00 0.00 20 1015.7
20260503214126 18 179 1.6 3.2 0.00 0.00 0.00 23 1015.9
20260503213626 18 173 3.2 4.8 0.00 0.00 0.00 21 1016.0
20260503213122 18 304 4.8 6.4 0.00 0.00 0.00 22 1015.9
20260503212619 18 210 3.2 4.8 0.00 0.00 0.00 22 1015.9
20260503212117 18 274 6.4 6.4 0.00 0.00 0.00 23 1015.8
20260503211614 18 180 9.7 12.9 0.00 0.00 0.00 20 1016.1
20260503211109 19 123 3.2 4.8 0.00 0.00 0.00 21 1015.8
20260503210606 18 204 3.2 4.8 0.00 0.00 0.00 23 1015.9
20260503205559 20 286 8.0 9.7 0.00 0.00 0.00 21 1016.1
20260503205055 18 228 0.0 1.6 0.00 0.00 0.00 21 1016.0
20260503204552 20 158 8.0 11.3 0.00 0.00 0.00 19 1016.3
20260503204049 19 310 1.6 1.6 0.00 0.00 0.00 24 1016.1
20260503203546 18 67 1.6 1.6 0.00 0.00 0.00 19 1016.3
20260503203043 18 170 3.2 3.2 0.00 0.00 0.00 20 1016.4
20260503202541 18 314 4.8 6.4 0.00 0.00 0.00 23 1016.3
20260503202039 18 191 3.2 3.2 0.00 0.00 0.00 21 1016.4
20260503201537 17 289 4.8 4.8 0.00 0.00 0.00 25 1016.5
20260503201034 18 250 9.7 12.9 0.00 0.00 0.00 22 1016.5
20260503200530 18 267 3.2 4.8 0.00 0.00 0.00 21 1016.6
20260503200027 18 182 8.0 11.3 0.00 0.00 0.00 23 1016.7
20260503195524 17 182 6.4 6.4 0.00 0.00 0.00 22 1016.7
20260503195021 18 281 4.8 4.8 0.00 0.00 0.00 23 1017.0
20260503194518 17 338 3.2 4.8 0.00 0.00 0.00 24 1017.2
20260503194018 17 323 3.2 3.2 0.00 0.00 0.00 24 1017.2
20260503193515 17 143 6.4 6.4 0.00 0.00 0.00 25 1017.2
20260503193010 17 304 4.8 6.4 0.00 0.00 0.00 23 1017.4
20260503192506 17 327 4.8 6.4 0.00 0.00 0.00 22 1017.4
20260503192001 17 336 6.4 9.7 0.00 0.00 0.00 22 1017.5
20260503191459 17 151 3.2 3.2 0.00 0.00 0.00 22 1017.5
20260503190955 17 197 4.8 4.8 0.00 0.00 0.00 24 1017.4
20260503190453 17 195 3.2 3.2 0.00 0.00 0.00 27 1017.4
20260503185950 17 269 8.0 9.7 0.00 0.00 0.00 24 1017.8
20260503185446 17 346 8.0 9.7 0.00 0.00 0.00 23 1017.9
20260503184946 17 46 1.6 3.2 0.00 0.00 0.00 21 1017.9
20260503184442 17 349 4.8 4.8 0.00 0.00 0.00 23 1018.2
20260503183938 16 103 0.0 1.6 0.00 0.00 0.00 23 1017.9
20260503183435 16 194 3.2 4.8 0.00 0.00 0.00 23 1018.0
20260503182932 17 274 3.2 4.8 0.00 0.00 0.00 25 1018.2
20260503182431 16 227 3.2 3.2 0.00 0.00 0.00 26 1018.2
20260503181928 17 265 6.4 9.7 0.00 0.00 0.00 26 1018.2
20260503181425 16 90 0.0 1.6 0.00 0.00 0.00 29 1018.4
20260503180921 16 108 0.0 1.6 0.00 0.00 0.00 30 1018.5
20260503180420 16 198 3.2 4.8 0.00 0.00 0.00 27 1018.5
20260503175916 16 286 6.4 9.7 0.00 0.00 0.00 25 1018.6
20260503175415 16 240 4.8 4.8 0.00 0.00 0.00 27 1018.6
20260503174909 15 315 8.0 11.3 0.00 0.00 0.00 27 1018.8
20260503174409 16 324 4.8 6.4 0.00 0.00 0.00 33 1018.7
20260503173908 16 343 6.4 6.4 0.00 0.00 0.00 27 1019.0
20260503173405 15 158 1.6 3.2 0.00 0.00 0.00 27 1019.1
20260503172902 15 333 6.4 11.3 0.00 0.00 0.00 29 1019.1
20260503172359 15 278 6.4 6.4 0.00 0.00 0.00 28 1019.1
20260503171855 15 110 3.2 3.2 0.00 0.00 0.00 26 1019.2
20260503171352 15 255 4.8 6.4 0.00 0.00 0.00 29 1019.3
20260503170850 15 195 3.2 3.2 0.00 0.00 0.00 31 1019.3
20260503170346 14 67 3.2 3.2 0.00 0.00 0.00 32 1019.3
20260503150738 11 275 4.8 9.7 0.00 0.00 0.00 35 1020.6
20260503150234 11 174 3.2 3.2 0.00 0.00 0.00 37 1020.6
20260503140159 10 281 4.8 6.4 0.00 0.00 0.00 41 1020.7
20260503131128 9 89 0.0 0.0 0.00 0.00 0.00 42 1020.7
20260503130626 8 357 6.4 6.4 0.00 0.00 0.00 41 1020.8
20260503130123 8 332 3.2 4.8 0.00 0.00 0.00 42 1020.5
20260503110516 2 134 0.0 0.0 0.00 0.00 0.00 80 1019.4
20260503090408 2 97 0.0 0.0 0.00 0.00 0.00 83 1017.3
20260503081335 2 97 0.0 0.0 0.00 0.00 0.00 86 1017.1
20260503080831 2 97 0.0 0.0 0.00 0.00 0.00 86 1017.3
20260503080329 2 97 0.0 0.0 0.00 0.00 0.00 86 1017.0
20260503072805 2 96 1.6 1.6 0.00 0.00 0.00 83 1016.6
20260503072305 2 96 0.0 0.0 0.00 0.00 0.00 83 1016.5
20260503071758 2 96 0.0 0.0 0.00 0.00 0.00 82 1016.7
20260503071255 2 96 0.0 0.0 0.00 0.00 0.00 84 1016.7
20260503070751 2 96 0.0 0.0 0.00 0.00 0.00 84 1016.7
20260503070250 2 96 0.0 0.0 0.00 0.00 0.00 84 1016.7